Content
SEND FEEDBACK

Daily
Averages
Monthly
Summary
United States of America

ST. LOUIS, MISSOURI


Home > North America > United States > Missouri
Elevation: 163 meters     Latitude: 38 45N     Longitude: 090 22W

WEATHER
 
SELECT A DAY
Number of Records: 196,649;   Date Range: 1/1/95 - 9/18/14
 
SHARE

PRINT THIS DATA

[ ← Previous Day ]
WEATHER ALMANAC - 15 SEPTEMBER, 2013
[ Next Day → ]
[ °F ]   °C
Weather ElementAverageHighLow
Temperature20.2 °C27.8 °C (3:54 pm)11.7 °C (6:54 am)
Dewpoint13.1 °C18.9 °C (6:54 pm)6.7 °C (1:54 am)
Humidity65.6 %90 % (11:54 pm)39 % (11:54 am)
Barometer1017.3 hPa1019.6 hPa (11:30 pm)1014.9 hPa (4:54 pm)
Wind Speed7.2 km/h14.8 km/h (9:54 am)
Weather ElementAverage
Visibility15.8 km
Wind DirectionS (180.8 °)

Weather ElementTotal
Precipitation1.02 mm
Cooling Degree Days1.4 (Base 18.3)
Growing Degree Days9.8 (Base 10)
Averaged from 25 records on 15 September, 2013
WEATHER CONDITIONS BREAKOUT
WIND DIRECTION BREAKOUT
WEATHER BY HOUR - 15 SEPTEMBER, 2013
[ °F ]   °C
Local TimeTemperatureDewpointHumidityBarometerVisibilityWind DirectionWind SpeedGust SpeedPrecipitationEventsConditions
1:54 AM15.6 °C6.7 °C55 %1016.6 hPa16.1 kmSouth (170°)7.4 km/hClear
2:54 AM14.4 °C6.7 °C60 %1016.9 hPa16.1 kmSSE (160°)11.1 km/hClear
3:54 AM14.4 °C7.2 °C62 %1016.6 hPa16.1 kmSSW (210°)7.4 km/hClear
4:54 AM13.3 °C7.2 °C67 %1016.9 hPa16.1 kmCalmClear
5:54 AM12.2 °C8.9 °C80 %1017.3 hPa16.1 kmCalmMostly Cloudy
6:54 AM11.7 °C7.8 °C77 %1017.6 hPa16.1 kmNNW (330°)5.6 km/hMostly Cloudy
7:54 AM15 °C8.9 °C67 %1017.9 hPa16.1 kmCalmMostly Cloudy
8:54 AM18.3 °C9.4 °C56 %1017.3 hPa16.1 kmSW (220°)9.3 km/hMostly Cloudy
9:54 AM20.6 °C9.4 °C49 %1017.6 hPa16.1 kmWSW (240°)14.8 km/hMostly Cloudy
10:54 AM22.8 °C10 °C44 %1017.3 hPa16.1 kmSW (230°)11.1 km/hMostly Cloudy
11:54 AM25.6 °C10.6 °C39 %1016.9 hPa16.1 kmSSW (210°)14.8 km/hMostly Cloudy
12:54 PM25.6 °C11.1 °C40 %1016.6 hPa16.1 kmWSW (240°)9.3 km/hOvercast
1:54 PM21.1 °C17.8 °C81 %1016.3 hPa16.1 kmCalm0.76 mmOvercast
2:54 PM26.1 °C13.9 °C47 %1015.9 hPa16.1 kmSW (220°)11.1 km/hOvercast
3:54 PM27.8 °C13.3 °C41 %1015.6 hPa16.1 kmWSW (240°)13 km/hClear
4:54 PM26.7 °C15.6 °C50 %1014.9 hPa16.1 kmSouth (190°)7.4 km/hMostly Cloudy
5:54 PM24.4 °C17.8 °C67 %1015.2 hPa16.1 kmCalmClear
6:54 PM22.2 °C18.9 °C81 %1016.3 hPa16.1 kmSW (220°)7.4 km/h0 mmRainLight Rain
7:54 PM21.7 °C18.3 °C81 %1016.6 hPa16.1 kmSW (220°)7.4 km/h0 mmMostly Cloudy
8:54 PM22.8 °C17.2 °C71 %1017.6 hPa16.1 kmNNW (340°)9.3 km/hMostly Cloudy
9:54 PM21.7 °C17.2 °C75 %1017.6 hPa14.5 kmNNE (30°)9.3 km/h0.25 mmRainLight Rain
10:54 PM21.1 °C18.3 °C84 %1018.3 hPa16.1 kmCalm0 mmMostly Cloudy
11:30 PM20 °C18 °C88 %1019.6 hPa14.5 kmNNW (330°)9.3 km/h0 mmMostly Cloudy
11:46 PM20 °C18 °C88 %1019.6 hPa14.5 kmNorth (360°)7.4 km/h0 mmOvercast
11:54 PM20 °C18.3 °C90 %1019 hPa14.5 kmNorth (360°)7.4 km/h0 mmOvercast
Hourly data recorded from KSUS, located 0 kilometers away from St. Louis, Missouri







STORIES FROM OUR PARTNERS